Other Public Products
Issued by NWS Grand Forks, ND

Home | Current Version | Previous Version | Text Only | Print | Product List | Glossary Off
Versions: 1 2 3 4 5 6 7 8 9 10 11 12 13 14 15 16 17 18 19 20 21 22 23 24 25 26 27 28 29 30 31 32 33 34 35 36 37 38 39 40 41 42 43 44 45 46 47 48 49 50

396
FPUS83 KFGF 201631
OPUFGF
PRAIRIE TO PINES WEATHER ROUNDUP
NATIONAL WEATHER SERVICE EASTERN NORTH DAKOTA/GRAND FORKS ND
1100 AM CDT SUN AUG 20 2017

 **SATELLITE DATA USED TO AUGMENT SKY COVER AT AUTOMATED STATIONS**
 *****  WEATHER ACROSS EASTERN NORTH DAKOTA  *****

CITY           SKY/WX    TMP DP  RH WIND       PRES   REMARKS
GRAND FORKS    FAIR      72  51  47 NW9       29.97R
GRAND FORKS AF FAIR      71  48  43 NW9       29.98R
GRAND CITY NWS NOT AVBL
BUXTON         NOT AVBL
DEVILS LAKE    FAIR      67  47  48 NW13      30.03R
FARGO          FAIR      69  53  56 NW15      29.97S
WAHPETON ARPT  FAIR      63  50  63 N12       29.97F
$$

 *****  WEATHER ACROSS CENTRAL AND WESTERN NORTH DAKOTA  *****

CITY           SKY/WX    TMP DP  RH WIND       PRES   REMARKS
JAMESTOWN      FAIR      63  51  65 NW8       30.03S
BISMARCK       FAIR      67  46  47 NW7       30.08R
MINOT          FAIR      70  43  37 W5        30.06R
MINOT AFB      FAIR      69  41  36 W8        30.05R
GARRISON         N/A     66  42  41 N5        30.07S
WILLISTON      FAIR      65  42  43 CALM      30.09S
DICKINSON      FAIR      60  45  57 VRB3      30.09S
HETTINGER      FAIR      65  42  43 E13       30.11S
$$

 *****  OTHER OBSERVATIONS NORTHEAST NORTH DAKOTA  *****

CITY           SKY/WX    TMP DP  RH WIND       PRES   REMARKS
WALHALLA       FAIR      70  68  94 NW9G16    29.98R
LANGDON        NOT AVBL
CAVALIER       FAIR      70  50  49 NW10G17   29.97R
GRAFTON        NOT AVBL
CANDO          FAIR      70  46  43 NW9G15    30.06R
FORT TOTTEN      N/A     69  50  50 NW7       29.95S
ROLLA          FAIR      68  46  45 NW7       30.04S
RUGBY          NOT AVBL
 ***** THE ABOVE OBSERVATIONS ARE NON NWS ARE NOT QUALITY
        CONTROLLED AND MAY MIS-REPORT RAIN FOR SNOW...
$$

 *****  OTHER OBSERVATIONS SOUTHEAST NORTH DAKOTA *****

CITY           SKY/WX    TMP DP  RH WIND       PRES   REMARKS
COOPERSTOWN    FAIR      68  50  52 NW13      30.02F
VALLEY CITY    NOT AVBL
OAKES          NOT AVBL
GWINNER        SUNNY     66  55  68 N10       30.00S
BUFFALO        NOT AVBL
WYNDMERE       NOT AVBL
 ***** THE ABOVE OBSERVATIONS ARE NON NWS ARE NOT QUALITY
       CONTROLLED AND MAY MIS-REPORT RAIN FOR SNOW...
$$

  *****  WEATHER ACROSS NORTHERN MINNESOTA  *****

CITY           SKY/WX    TMP DP  RH WIND       PRES   REMARKS
FLAG ISLAND    HAZE      72  48  43 NW9       29.88R VSB 3/4
WARROAD        FAIR      72  55  56 NW16      29.92R
ROSEAU         FAIR      73  55  53 NW10G16   29.92S
HALLOCK        FAIR      72  46  40 NW12G18   29.94S
THF RVR FALLS  FAIR      66  50  56 NW9       29.98R
HALSTAD          N/A     69  48  47 N12         N/A
FOSSTON        FAIR      72  54  53 NW8       29.97S
BAUDETTE       FAIR      70  53  54 NW17      29.89R
WASKISH        CLOUDY    72  54  53 W9        29.92R
CROOKSTON      FAIR      70  48  46 N12       29.98S
$$
  *****  WEATHER ACROSS CENTRAL AND WEST MINNESOTA  *****

CITY           SKY/WX    TMP DP  RH WIND       PRES   REMARKS
BEMIDJI        FAIR      66  54  63 NW12      29.96R
PARK RAPIDS    FAIR      69  57  65 NW10      29.95R
WADENA         FAIR      64  57  77 NW9       29.96R
DETROIT LAKES  FAIR      63  54  72 NW7       29.99S
MOORHEAD       FAIR      66  54  63 N10       29.98S
FERGUS FALLS   FAIR      64  54  68 N9        29.97F
ELBOW LAKE     FAIR      63  57  81 N9        29.97S
MORRIS MN      FAIR      66  57  72 N8        29.97R
STAPLES        FAIR      70  59  68 NW9       29.95R
WHEATON        FAIR      64  54  68 N10       29.99R
$$
  *****  WEATHER ELSEWHERE ACROSS MINNESOTA  *****

CITY           SKY/WX    TMP DP  RH WIND       PRES   REMARKS
DULUTH         CLOUDY    68  65  90 W13       29.89R
INTRNTL FALLS  FAIR      73  61  65 W10       29.86R
ELY            CLOUDY    66  63  88 SW6       29.86R
CLOQUET        CLOUDY    70  63  78 W10       29.91R
BRAINERD       FAIR      70  62  76 NW10      29.92R
HIBBING        FAIR      72  64  76 NW13      29.89R
ALEXANDRIA     FAIR      68  60  75 N6        29.98R
SAINT CLOUD    FAIR      75  68  78 NW8       29.93R
MINNEAPOLIS    FAIR      78  65  63 SW9       29.91S
$$

  *****  WEATHER ACROSS SOUTH DAKOTA  *****

CITY           SKY/WX    TMP DP  RH WIND       PRES   REMARKS
SIOUX FALLS    FAIR      78  68  71 NE7       29.96R
BROOKINGS      FAIR      72  60  66 NE8       29.98R
WATERTOWN      FAIR      66  56  70 NE8       30.01R
HURON          FAIR      71  59  65 N15       30.01R
SISSETON         N/A     65  55  70 NW13      29.97R
ABERDEEN       LGT RAIN  62  53  72 NE12      29.98F
MITCHELL       CLOUDY    73  66  78 N10       30.00R
PIERRE         FAIR      73  52  47 E16       29.97R
MOBRIDGE       FAIR      69  49  48 NE13      30.04R
RAPID CITY     FAIR      69  47  45 N9        30.11S
$$

  *****  SOME WEATHER IN NEARBY STATES *****

CITY           SKY/WX    TMP DP  RH WIND       PRES   REMARKS
GLASGOW MT     FAIR      65  34  31 SE10      30.06F
GREAT FALLS MT FAIR      66  37  34 SW15      30.06S
CHEYENNE WY    FAIR      67  40  37 N16       30.20R
SCOTTSBLUFF NE FAIR      70  56  61 NE14      30.09S
OMAHA NE       PTSUNNY   72  66  81 CALM      29.99R
DES MOINES IA  PTSUNNY   78  66  66 VRB3      29.95S
DAVENPORT IA   FAIR      73  66  78 VRB3      30.04F
CHICAGO IL     PTSUNNY   82  64  54 S6        30.05S
EAU CLAIRE WI  FAIR      74  64  71 S12       29.94S
LA CROSSE WI   FAIR      75  65  70 S8        30.00R
$$

  *****  SOME NATIONAL WEATHER *****

CITY           SKY/WX    TMP DP  RH WIND       PRES   REMARKS
LA GUARDIA NY  PTSUNNY   79  59  50 NW14      30.05R
RALEIGH NC     FAIR      90  67  46 VRB3      30.13R HX  93
ATLANTA GA     FAIR      88  66  48 VRB3      30.13R HX  90
NEW ORLEANS LA FAIR      89  76  65 NE6       30.06S HX 100
OKLAHOMA CITY  PTSUNNY   86  69  56 SW12G21   30.02R HX  90
ALBUQUERQUE NM CLOUDY    73  53  49 S8        30.18S
SALT LAKE CITY FAIR      81  45  28 CALM      30.05R
LOS ANGELES CA CLOUDY    69  61  75 SW5       29.95S
BOISE ID       FAIR      65  43  44 VRB3      30.07F
SEATTLE WA     PTSUNNY   61  49  64 NE8       30.18R
$$

*** WEATHER ACROSS MANITOBA...SASKATCHEWAN AND ONTARIO ***
                ***ONTARIO***

CITY           SKY/WX    TMP DP  RH WIND       PRES   REMARKS
GERALDTON      MOSUNNY   75  61  60 SW21      29.78F
THUNDER BAY    PTSUNNY   77  66  69 SW8       29.79F
SIOUX LOOKOUT  PTSUNNY   70  59  68 NW14G23   29.77R
TORONTO        MOSUNNY   79  63  57 W8        30.06F
BIG TROUT LK   CLOUDY    63  61  94 SW13G20   29.54R
PICKLE LAKE    TSTM      64  63  94 SW9G17    29.68R
DRYDEN         MOSUNNY   72  57  60 W14G22    29.80R
KENORA         MOSUNNY   70  48  46 NW14G23   29.87R
$$
                *** MANITOBA***

CITY           SKY/WX    TMP DP  RH WIND       PRES   REMARKS
BRANDON        MOSUNNY   66  50  55 W10       30.00R
DAUPHIN        SUNNY     68  48  49 W18       29.94R
ISLAND LAKE    MOSUNNY   66  50  55 W14       29.65R
PILOT MOUND      N/A     66  45  45 NW8         N/A
THE PAS        MOSUNNY   66  46  48 W16G32    29.76S
THOMPSON       PTSUNNY   61  52  72 W15G22    29.60R
WINNIPEG       MOSUNNY   72  50  46 NW15      29.92R
LYNN LAKE      LGT RAIN  55  52  88 MISG      29.60S
CHURCHILL      LGT RAIN  54  54 100 E13       29.49F
GILLAM         DRIZZLE   57  57 100 SW7       29.49R FOG
$$
                ***SASKATCHEWAN***

CITY           SKY/WX    TMP DP  RH WIND       PRES   REMARKS
ESTEVAN        PTSUNNY   64  43  45 W3        30.06S
KINDERSLEY     CLOUDY    54  41  62 S3        30.00S
LLOYDMINSTER   PTSUNNY   55  45  67 W15       29.93F
PRINCE ALBERT  MOSUNNY   64  46  52 W13G23    29.90S
REGINA         PTSUNNY   63  41  45 SW5       30.04R
YORKTON        SUNNY     66  46  48 W18G24    29.97R
N. BATTLEFORD  CLOUDY    59  45  58 W8        29.97R



USA.gov is the U.S. government's official web portal to all federal, state and local government web resources and services.